User: anonymous   Login
Location: Unspecified
(0.0000°N, 0.0000°E)
Time: 05:05:41
(UTC+00:00)
Language:

Tiros 1 - Orbit

View from above orbital plane
View from above orbital plane
View from above satellite
View from above satellite

Ground track
Ground track

The orbit is defined by the following mean orbital elements,

1 00029U          26149.28119385 +.00000000 +00000-0 +10748-3 0 00006
2 00029  48.3770 114.4940 0022122 188.9579 171.0942 14.78748104    09
Epoch (UTC): 29 May 2026 06:44:55
Eccentricity: 0.0022122
inclination: 48.3770°
perigee height: 618 km
apogee height: 649 km
right ascension of ascending node: 114.4940°
argument of perigee: 188.9579°
revolutions per day: 14.78748104
mean anomaly at epoch: 171.0942°

The dashed part of the orbit path shows where the satellite is in the earth's shadow,  

DLR